OPS 4682 DEB, 14716

Orbit data source: Space-Track

OPS 4682 DEB, 14716 is space debris in LEO originally from a launch on Sat, 03 Apr 1965 UTC launched from the Air Force Western Test Range (AFWTR). Debris objects in space refer to the collection of defunct objects orbiting the Earth. Examples of debris include non-operational satellites, rocket bodies, and fragments generated from explosions, collisions, or faulty payload assembly.

Loading next visibility...
Identifier
14716, 1965-027P
Orbit
LEO
Country
Flag of USUS
Related business
Manufacturer
Unknown
Mission
Spacecraft
Bus & Motor
Unknown
Mass
Unknown
Launch date (UTC)
1965-04-03 (61 years ago)
Launch vehicle
Unknown
Launch site
Air Force Western Test Range (AFWTR)
Object type
Payload
Rocket body
Debris
Shape & HBR
Unknown shape, 0.1 m
Radar Cross Section
Medium (>0.1 m² and <1 m²)

Expand to show TLE details & history
Last TLE update: 1 week ago

TLE from 1 week ago
0 OPS 4682 DEB
1 14716U 65027P   26256.62902648  .00000902  00000-0  29815-2 0  9995
2 14716  90.2575  16.2302 0030175  82.5305 290.7103 12.99693798450961
Epoch: 2026-09-13T15:05Z
TLE epoch observation values (Epoch: 2026-09-13T15:05:47.887Z)
Latitude
12.87929°
Longitude
157.10115°
Altitude
1,257.33 km
Speed
7.231 km/s
True Right ascension
01h 04m 41s
True Declination
12° 48' 35"
Sunlit
Object was in full shadow at epoch
Visualization orbit readout
Latitude
Unknown
Longitude
Unknown
Altitude
Unknown
Speed
Unknown
Apparent Right ascension
Unknown
Apparent Declination
Unknown
Sunlit
N/A
Visualization observer readout
Local Sidereal Time
20:50:14
Azimuth
Unknown
Elevation
Unknown
Doppler factor
Unknown
Orbital elements
Apogee altitude
1,283.463 km
Perigee altitude
1,237.365 km
Semi-major axis
7,638.551 km
Eccentricity
0.00302
Inclination
90.2575°
RAAN
16.2302°
Arg. of periapsis
82.5305°
True anomaly
290.38643°
Mean anomaly
290.7103°
Eccentric anomaly
290.54841°
Mean motion
3.25107 °/min
Orbital period
110.73 mins
BSTAR
0.0029815
Loading maneuver chart data...
Computing Atmospheric mass density...
Loading historical data...
Loading historical data...
Loading historical data...
Loading historical data...
Loading historical data...
Loading historical data...
Loading historical data...

Documentation

Showing up to 5 results
|